Simultaneous Nadir Overpasses (SNOs) Predictions

Prediction of SNOs between GOES-16 and AQUA Satellite Orbit:

Table of predicted SNOs for the next 14.0 days since TLE Epoch: 3/27/2020
Index Date Time (GOES-16) GOES-16 Lat,Lon AQUA Lat,Lon Distance(km) Time Diff (sec)
1 03/28/2020 06:17:40 0.02, -75.13 -0.87, -70.92 478.80 80
2 03/28/2020 18:39:04 -0.02, -75.14 -0.22, -76.11 110.66 80
3 03/30/2020 18:29:33 -0.01, -75.14 0.41, -73.16 225.02 80
4 03/31/2020 06:50:48 0.00, -75.13 0.69, -78.32 362.32 80
5 04/02/2020 06:38:38 0.01, -75.13 0.05, -75.36 26.05 80
6 04/04/2020 06:23:47 0.01, -75.14 -0.60, -72.41 310.78 80
7 04/04/2020 18:45:09 -0.01, -75.15 -0.56, -77.59 278.63 80
8 04/06/2020 18:35:38 -0.01, -75.16 0.09, -74.64 58.92 80
9 04/08/2020 18:23:27 0.01, -75.18 0.74, -71.69 396.49 80
10 04/09/2020 06:44:43 -0.02, -75.18 0.35, -76.85 190.06 80




NCC Satellite Simultaneous Nadir Overpasses (SNOs) Prediction Service
